www.pogodaiklimat.ru

Погода и климат >> Архив погоды >> Германия >> Ангермюнде


ПОГОДА в Ангермюнде

  • Прогноз погоды в Ангермюнде
  • Монитор погоды в Ангермюнде

АРХИВ ПОГОДЫ в Ангермюнде

Время (UTC), дата Ветер
(напр.,м/с)
 
Видим.   Явления Облачность Т
(С)
Тd
(С)
f
(%)
Тe
(С)
Тes
(С)
Комфортность P
(гПа)
Po
(гПа)
Тmin
(С)
Tmax
(С)
R
(мм)
R24
(мм)
S
(см)
19 18.06 В 3-4
{5}
40 км 1/0
[]
+23.4 +12.1 49 +26 +26 жарко 1014.3 1007.9
20 18.06 В 2 35 км 9/0
[]
+20.8 +11.8 56 +24 +24 комфорт 1014.7 1008.2
21 18.06 ЮВ 2 45 км 9/0
[]
+21.0 +11.9 56 +24 +24 комфорт 1014.7 1008.2
22 18.06 ЮВ 2-3
{4}
40 км ясно +20.2 +12.0 59 +23 +23 комфорт 1014.5 1008.0
23 18.06 ЮВ 2 35 км 10/0
[]
+20.1 +12.1 60 +22 +22 комфорт 1014.5 1008.0
00 19.06 ЮВ 2 35 км 10/0
[]
+19.2 +12.2 64 +21 +21 комфорт 1013.9 1007.4
01 19.06 ЮВ 2 29 км 9/0
[]
+17.7 +12.6 72 +18 +18 1013.5 1007.0
02 19.06 ЮВ 2 21 км 8/0
[]
+16.8 +12.7 77 +17 +17 1013.3 1006.8
03 19.06 ЮВ 1 20 км 8/0
[]
+16.4 +12.8 79 +17 +17 1013.3 1006.7
04 19.06 В 1 17 км 9/0
[]
+16.3 +13.4 83 +17 +17 1013.0 1006.4
05 19.06 В 1-2
{3}
18 км 6/0
[]
+19.2 +14.4 74 +22 +23 комфорт 1012.5 1006.0
06 19.06 ЮВ 3 19 км 9/0
[]
+21.1 +14.5 66 +24 +26 комфорт 1012.2 1005.8 +15.3 +26.3
07 19.06 ЮВ 3 5000 м дым 10/0
[]
+22.3 +14.8 63 +26 +29 жарко 1011.9 1005.5
08 19.06 ЮВ 3 13 км 9/0
[]
+24.7 +15.8 58 +28 +33 душно 1011.4 1005.0
09 19.06 ЮВ 4 18 км 9/0
[]
+26.5 +15.4 51 +30 +35 душно 1010.9 1004.6
10 19.06 Ю 4-7
{7}
19 км 5/0
[]
+28.0 +13.7 41 +30 +38 жарко 1010.5 1004.2
11 19.06 Ю 3 15 км 9/0
[]
+28.6 +12.2 36 +30 +37 жарко 1010.1 1003.8
12 19.06 Ю 3 21 км 10/0
[]
+29.3 +13.1 37 +31 +37 жарко 1009.8 1003.5
13 19.06 ЮВ 3 29 км 10/0
[]
+29.9 +13.0 35 +31 +37 жарко 1009.2 1003.0
14 19.06 ЮВ 3 19 км 10/0
[]
+29.4 +13.4 37 +31 +36 жарко 1008.6 1002.4
15 19.06 ЮВ 3 25 км в посл. час дождь 10/0
[]
+28.9 +14.7 42 +31 +35 жарко 1008.0 1001.7 0.0
16 19.06 ЮВ 3 21 км 10/0
[]
+29.6 +13.3 37 +31 +33 жарко 1007.3 1001.1
17 19.06 ЮВ 3 30 км 10/0
[]
+29.4 +14.0 39 +31 +32 жарко 1007.2 1001.0
18 19.06 ЮВ 2 30 км {дождь} 10/0
[]
+29.0 +15.3 43 +32 +32 душно 1007.0 1000.8 +21.1 +31.0
19 19.06 ЮВ 2 29 км 10/0
[]
+27.4 +15.2 47 +30 +30 жарко 1007.0 1000.7
20 19.06 Ю 2 20 км 4/0
[]
+25.0 +15.8 57 +28 +28 жарко 1007.5 1001.2
21 19.06 ЮВ 2 19 км 10/0
[]
+24.1 +15.9 60 +27 +27 жарко 1007.5 1001.2
22 19.06 ЮЗ 3-6
{6}
16 км ясно +20.6 +15.8 74 +24 +24 комфорт 1007.5 1001.1
23 19.06 Ю 3-4
{5}
26 км ясно +21.9 +15.0 65 +25 +25 комфорт 1007.4 1001.0
00 20.06 З 4 27 км 6/0
[]
+21.6 +13.8 61 +24 +24 комфорт 1007.8 1001.4
01 20.06 З 3 30 км 9/0
[]
+21.0 +12.5 58 +24 +24 комфорт 1007.8 1001.4
02 20.06 З 5 30 км 9/0
[]
+21.2 +11.7 55 +23 +23 комфорт 1007.9 1001.5
03 20.06 СЗ 3 5000 м в посл. час дождь {морось} 10/0
[]
+19.9 +13.1 65 +22 +22 комфорт 1007.4 1001.0 0.0
04 20.06 ЮЗ 1 35 км 6/0
[]
+18.7 +14.7 78 +21 +21 комфорт 1008.0 1001.5
05 20.06 Ю 2 21 км 5/0
[]
+20.4 +14.3 68 +24 +25 комфорт 1008.2 1001.8
06 20.06 Ю 2 25 км {дождь, морось} 5/0
[]
+21.0 +14.9 68 +25 +28 комфорт 1008.4 1002.0 +18.2 +29.0 0.0
07 20.06 Ю 3 29 км дождь 9/0 2000 м
[]
+22.3 +15.3 65 +26 +30 жарко 1009.0 1002.6
08 20.06 ЮЗ 4 23 км в посл. час дождь {морось} 10/10 1500 м
[]
+20.3 +16.3 78 +23 +23 комфорт 1010.5 1004.1
09 20.06 ЮЗ 3 30 км {дождь, морось} 10/0
[]
+21.6 +15.6 69 +25 +31 комфорт 1010.5 1004.1 3
10 20.06 ЮЗ 2 30 км в посл. час дождь 9/0
[]
+21.9 +15.5 67 +26 +34 душно 1010.4 1004.0
11 20.06 ЮЗ 3 30 км 10/0
[]
+21.6 +15.5 68 +25 +32 комфорт 1010.8 1004.4
12 20.06 Ю 3 25 км в посл. час дождь {морось} 8/0
[]
+22.7 +16.5 68 +27 +35 душно 1011.0 1004.6 0.1
13 20.06 ЮЗ 4 26 км 8/8 1110 м
[]
+24.8 +15.7 57 +28 +30 жарко 1010.3 1004.0
14 20.06 З 4 30 км 9/9 1380 м
[]
+25.9 +15.0 51 +29 +29 душно 1010.2 1003.9
15 20.06 З 5 25 км 9/9 1500 м
[]
+25.2 +14.8 52 +28 +28 жарко 1010.3 1004.0
16 20.06 З 3 35 км 10/0
[]
+23.5 +15.0 59 +26 +28 жарко 1010.3 1003.9
17 20.06 З 3 30 км 9/0
[]
+24.3 +14.7 55 +27 +28 жарко 1010.5 1004.1
18 20.06 З 2 30 км 4/4 1000 м
[]
+22.9 +15.5 63 +27 +28 душно 1010.9 1004.5 +19.2 +26.3
19 20.06 С 1-2
{3}
30 км 4/0
[]
+22.1 +15.5 66 +26 +26 душно 1011.3 1004.9
20 20.06 СЗ 1 24 км 9/0
[]
+20.0 +16.1 78 +24 +24 комфорт 1012.0 1005.5
21 20.06 С 1 22 км 10/0
[]
+19.7 +16.5 82 +23 +23 комфорт 1012.4 1005.9
22 20.06 З 1 19 км 10/10 1300 м
[]
+18.6 +16.0 85 +21 +21 комфорт 1012.7 1006.2
23 20.06 С 1 16 км 10/0
[]
+18.7 +15.7 83 +21 +21 комфорт 1012.9 1006.4
00 21.06 СВ 1 11 км 10/0
[]
+18.1 +16.1 88 +19 +19 1012.8 1006.3
01 21.06 В 2 7000 м в посл. час дождь {морось} 10/10 1500 м
[]
+17.9 +16.4 91 +18 +18 1012.9 1006.4
02 21.06 Ю 3 14 км 9/9 960 м
[]
+18.3 +16.4 89 +19 +19 1013.2 1006.7
03 21.06 СВ 1 30 км {дождь, морось} 9/9 840 м
[]
+16.9 +15.2 90 +18 +18 1013.6 1007.1 0.0
04 21.06 З 1 20 км в посл. час дождь 9/9 1410 м
[]
+16.8 +15.5 92 +18 +18 1014.1 1007.6
05 21.06 З 3 35 км 6/0 2000 м
[]
+17.4 +15.0 86 +17 +19 1014.7 1008.2
06 21.06 З 4 19 км {дождь, морось} 9/9 200 м
[]
+18.0 +15.3 84 +18 +18 1015.1 1008.6 +16.8 +23.0 0.0
07 21.06 СЗ 2 27 км 5/5 360 м
[]
+20.1 +15.0 72 +23 +27 комфорт 1015.2 1008.7
08 21.06 СЗ 4 30 км в посл. час дождь {морось} 10/10 700 м
[]
+19.7 +15.1 75 +22 +22 комфорт 1016.1 1009.6
09 21.06 СЗ 3 23 км {дождь, морось} 9/9 930 м
[]
+20.2 +14.7 71 +23 +24 комфорт 1016.4 1009.9 0.0
10 21.06 СЗ 3 22 км в посл. час дождь {ливн. осадки} 9/9 700 м
[]
+20.9 +16.9 78 +25 +26 комфорт 1016.8 1010.3
11 21.06 З 4 30 км 9/9 1080 м
[]
+22.2 +14.0 60 +25 +26 комфорт 1016.8 1010.4
12 21.06 З 5 18 км {ливн. осадки, дождь} 10/10 1020 м
[]
+22.3 +14.4 61 +26 +26 жарко 1016.9 1010.5 4
13 21.06 СЗ 4 30 км 9/9 1320 м
[]
+22.7 +14.2 59 +26 +27 жарко 1017.0 1010.6
14 21.06 З 5 35 км 9/9 1380 м
[]
+23.0 +12.1 50 +26 +26 жарко 1017.0 1010.6
15 21.06 СЗ 4 35 км 5/5 1500 м
[]
+24.0 +11.1 44 +25 +28 комфорт 1016.9 1010.5
16 21.06 СЗ 5 40 км 4/4 1500 м
[]
+23.1 +10.4 45 +25 +27 комфорт 1017.0 1010.6
17 21.06 СЗ 5-7
{8}
40 км ясно +23.1 +10.6 45 +25 +26 комфорт 1017.3 1010.9
18 21.06 СЗ 4 55 км ясно +22.0 +10.3 47 +24 +24 комфорт 1017.8 1011.3 +17.7 +24.6
19 21.06 СЗ 2-2
{5}
45 км ясно +20.5 +12.0 58 +23 +23 комфорт 1018.3 1011.8
20 21.06 СЗ 1-2
{2}
40 км ясно +18.0 +12.9 72 +19 +19 1019.2 1012.6
21 21.06 С 2-3
{5}
30 км ясно +16.7 +12.3 75 +17 +17 1019.9 1013.3
22 21.06 С 2-2
{2}
15 км 1/0 2000 м
[]
+15.6 +12.9 84 +15 +15 1020.4 1013.8
23 21.06 С 2-4
{5}
16 км ясно +15.0 +13.1 88 +15 +15 1021.2 1014.6
00 22.06 С 2 25 км ясно +14.4 +12.3 87 +14 +14 1021.6 1014.9
01 22.06 С 1-1
{4}
20 км 1/1 1500 м
[]
+13.8 +11.9 88 +14 +14 1021.8 1015.1
02 22.06 С 2-3
{4}
15 км ясно +13.4 +11.9 91 +13 +13 1022.1 1015.4
03 22.06 С 1 12 км 3/3 870 м
[]
+12.9 +11.6 92 +13 +13 1022.6 1015.9
04 22.06 С 1-2
{3}
11 км 1/1 1020 м
[]
+13.0 +11.5 91 +13 +14 1023.0 1016.3
05 22.06 С 2-3
{3}
21 км 10/10 1110 м
[]
+14.9 +11.7 81 +15 +15 1023.4 1016.7
06 22.06 С 2 18 км ясно +17.2 +11.6 70 +18 +22 1023.5 1016.9 +12.8 +22.0
07 22.06 СВ 3-4
{6}
14 км 3/3 1110 м
[]
+19.0 +12.0 64 +20 +25 1023.9 1017.3
08 22.06 С 3 18 км 9/9 1230 м
[]
+20.1 +12.2 60 +22 +23 комфорт 1023.9 1017.4
09 22.06 СВ 3 29 км 6/6 1170 м
[]
+21.4 +12.3 56 +24 +28 комфорт 1024.0 1017.5
10 22.06 СВ 3-6
{6}
30 км 3/3 1110 м
[]
+22.4 +12.3 53 +25 +34 комфорт 1023.8 1017.3
11 22.06 СВ 4 28 км 6/6 1230 м
[]
+22.2 +11.6 51 +24 +29 комфорт 1023.6 1017.1
12 22.06 С 3 40 км 6/6 1380 м
[]
+24.0 +12.0 47 +26 +31 жарко 1023.3 1016.8
13 22.06 СВ 3 30 км 5/5 1500 м
[]
+24.4 +11.0 43 +26 +32 жарко 1022.5 1016.1
14 22.06 СВ 3-6
{7}
30 км 3/3 1500 м
[]
+24.1 +11.0 44 +25 +32 комфорт 1022.5 1016.0
15 22.06 СВ 4 35 км 9/9 1500 м
[]
+23.2 +10.4 44 +25 +26 комфорт 1022.2 1015.7
16 22.06 С 3-7
{7}
30 км 9/0
[]
+24.2 +10.9 43 +25 +28 комфорт 1021.6 1015.2
17 22.06 С 4-8
{8}
30 км ясно +23.2 +10.9 46 +25 +27 комфорт 1021.7 1015.2
18 22.06 СВ 5 40 км ясно +21.0 +11.3 54 +23 +24 комфорт 1021.9 1015.4 +17.2 +25.0
19 22.06 СВ 5-8
{10}
40 км ясно +18.6 +10.6 60 +19 +19 1022.0 1015.4
20 22.06 С 3-5
{8}
35 км ясно +16.4 +10.2 67 +16 +16 1022.9 1016.3
21 22.06 С 3 35 км 6/0
[]
+14.8 +9.9 72 +14 +14 1023.1 1016.4
22 22.06 СВ 3-4
{5}
45 км ясно +13.7 +9.0 73 +13 +13 1023.3 1016.6
23 22.06 СВ 3-4
{5}
40 км 8/0
[]
+12.9 +8.6 75 +12 +12 1023.4 1016.7
00 23.06 С 2 40 км 10/0
[]
+12.0 +8.5 79 +11 +11 1023.5 1016.8
01 23.06 С 2 30 км 10/0
[]
+11.4 +8.4 82 +10 +10 1023.8 1017.0
02 23.06 С 3-4
{4}
27 км 3/0
[]
+11.2 +8.4 83 +9 +9 1023.6 1016.8
03 23.06 С 2 25 км 10/0
[]
+11.0 +8.6 85 +10 +10 1023.8 1017.0
04 23.06 С 2-3
{5}
22 км 3/0
[]
+11.3 +8.9 85 +10 +11 1023.8 1017.0
05 23.06 СВ 2-4
{4}
26 км ясно +13.2 +9.5 78 +13 +15 1023.7 1017.0
06 23.06 СВ 2 28 км ясно +16.2 +10.5 69 +16 +21 1023.8 1017.2 +10.9 +21.0
07 23.06 СВ 3-4
{5}
21 км ясно +18.8 +11.4 62 +20 +26 1023.9 1017.3
08 23.06 СВ 2-4
{5}
30 км ясно +20.7 +12.1 58 +24 +34 комфорт 1023.7 1017.2
09 23.06 С 2 35 км ясно +22.4 +12.5 53 +25 +39 комфорт 1023.8 1017.3
10 23.06 С 2-4
{5}
29 км ясно +24.1 +11.7 46 +26 +42 жарко 1023.5 1017.0
11 23.06 СВ 2 35 км 4/4 1500 м
[]
+24.9 +10.9 41 +26 +36 жарко 1023.2 1016.8
12 23.06 В 2 35 км 4/4 1500 м
[]
+25.3 +11.5 42 +27 +36 жарко 1023.0 1016.6
13 23.06 СВ 3-6
{6}
30 км 5/5 1500 м
[]
+25.5 +11.1 40 +27 +33 жарко 1022.7 1016.3
14 23.06 С 4-8
{8}
30 км 5/5 1500 м
[]
+25.8 +11.3 40 +27 +31 жарко 1022.5 1016.1
15 23.06 СЗ 3 35 км 5/0 2000 м
[]
+26.9 +11.3 38 +28 +33 жарко 1022.3 1015.9
16 23.06 С 4-7
{7}
30 км 6/6 1500 м
[]
+25.9 +10.9 39 +27 +28 жарко 1022.3 1015.9
17 23.06 С 3-6
{7}
30 км ясно +25.2 +10.9 41 +26 +28 жарко 1022.2 1015.8
18 23.06 С 5 35 км ясно +22.8 +13.5 56 +26 +26 жарко 1022.4 1015.9 +16.2 +27.1
19 23.06 С 4-6
{8}
35 км ясно +20.7 +12.8 61 +23 +23 комфорт 1022.7 1016.2
20 23.06 С 3-4
{6}
35 км ясно +18.3 +12.8 70 +19 +19 1023.5 1016.9
21 23.06 С 2-3
{8}
27 км ясно +16.6 +12.5 77 +17 +17 1024.1 1017.5
22 23.06 С 2-3
{4}
30 км ясно +15.4 +12.2 81 +15 +15 1024.6 1017.9
23 23.06 СВ 2-3
{3}
30 км ясно +14.8 +11.9 83 +14 +14 1024.5 1017.8
00 24.06 С 2 28 км ясно +14.0 +11.5 85 +13 +13 1024.9 1018.2
01 24.06 СЗ 2-2
{3}
25 км ясно +12.9 +11.1 89 +12 +12 1024.9 1018.2
02 24.06 С 2-2
{4}
21 км ясно +12.7 +11.1 90 +12 +12 1025.1 1018.4
03 24.06 СВ 1-2
{4}
19 км ясно +11.9 +10.7 92 +12 +12 1025.2 1018.5
04 24.06 СВ 1-2
{2}
18 км ясно +12.6 +11.2 91 +13 +13 1025.4 1018.7
05 24.06 В 1-1
{2}
22 км ясно +15.0 +12.1 83 +16 +18 1025.5 1018.8
06 24.06 ЮВ 3 11 км ясно +18.7 +10.1 57 +19 +23 1025.8 1019.2 +11.8 +22.8
07 24.06 ЮВ 2-4
{5}
9000 м ясно +20.9 +10.6 52 +23 +31 комфорт 1026.1 1019.6
08 24.06 В 2 13 км 9/0
[]
+22.5 +9.4 43 +24 +30 комфорт 1025.9 1019.4
09 24.06 ЮВ 3 29 км 9/0
[]
+24.9 +9.3 37 +26 +32 жарко 1025.7 1019.2
10 24.06 ЮВ 3-5
{6}
26 км 10/0
[]
+25.8 +8.7 34 +26 +33 жарко 1025.2 1018.8
11 24.06 В 4 35 км 9/0
[]
+27.0 +7.5 29 +27 +33 жарко 1025.1 1018.7
12 24.06 В 4 28 км 5/0
[]
+27.4 +7.3 28 +27 +35 жарко 1024.7 1018.3
13 24.06 В 3 35 км 9/0
[]
+27.7 +8.0 29 +27 +34 жарко 1024.6 1018.2
14 24.06 В 4-8
{8}
30 км н/о +27.9 +7.7 28 +27 +27 жарко 1024.2 1017.8
15 24.06 В 4-10
{10}
30 км н/о +28.4 +6.4 25 +27 +27 жарко 1023.9 1017.5
16 24.06 В 3-5
{8}
35 км 4/0
[]
+28.6 +6.1 24 +27 +31 жарко 1023.9 1017.5
17 24.06 В 3-4
{7}
45 км 10/0
[]
+27.8 +7.4 28 +27 +28 жарко 1023.6 1017.2
18 24.06 СВ 4 40 км 10/0
[]
+26.4 +8.1 31 +26 +27 жарко 1023.5 1017.1 +18.7 +28.7
19 24.06 СВ 3 35 км 10/0
[]
+22.6 +10.3 46 +24 +24 комфорт 1023.6 1017.1
20 24.06 СВ 3-4
{5}
40 км н/о +19.7 +11.4 59 +21 +21 комфорт 1023.9 1017.3
21 24.06 СВ 2-4
{6}
35 км н/о +18.4 +11.8 65 +19 +19 1024.3 1017.7
22 24.06 СВ 2-3
{5}
35 км н/о +17.7 +12.2 70 +18 +18 1024.4 1017.8
23 24.06 С 2 35 км 10/0
[]
+16.2 +12.1 77 +16 +16 1024.3 1017.7
00 25.06 С 2 30 км 1/0
[]
+15.2 +12.0 81 +15 +15 1024.5 1017.8
01 25.06 С 1 30 км 4/0
[]
+14.4 +11.9 85 +15 +15 1024.4 1017.7
02 25.06 СВ 2-2
{3}
29 км ясно +13.8 +11.5 86 +13 +13 1024.1 1017.4
03 25.06 СВ 1 30 км 10/0
[]
+13.8 +11.3 85 +14 +14 1023.9 1017.2
04 25.06 В 2-3
{3}
28 км 10/0
[]
+15.5 +12.1 80 +15 +16 1023.8 1017.2
05 25.06 В 1 35 км 10/0
[]
+18.3 +13.8 75 +20 +21 1024.0 1017.4
06 25.06 ЮВ 3 15 км 1/0
[]
+21.8 +12.8 57 +24 +28 комфорт 1023.9 1017.4 +13.7 +26.4
07 25.06 ЮВ 4-6
{6}
7000 м дым 5/0
[]
+24.2 +13.4 51 +26 +30 жарко 1023.8 1017.3
08 25.06 ЮВ 4-6
{7}
7000 м дым ясно +27.5 +13.0 41 +29 +37 жарко 1023.6 1017.2
09 25.06 ЮВ 6 12 км 10/0
[]
+28.7 +12.5 37 +30 +33 жарко 1023.4 1017.0
10 25.06 В 5-8
{9}
30 км 5/0
[]
+30.4 +11.0 30 +31 +37 жарко 1023.0 1016.7
11 25.06 ЮВ 4 20 км 9/0
[]
+30.9 +12.8 33 +32 +38 жарко 1022.8 1016.5
12 25.06 ЮВ 4 21 км 9/0
[]
+31.0 +13.3 34 +32 +38 жарко 1022.5 1016.2
13 25.06 Ю 3 21 км 10/0
[]
+31.9 +13.5 33 +33 +39 жарко 1022.1 1015.8
14 25.06 Ю 4 25 км 4/0
[]
+32.1 +12.3 30 +33 +39 жарко 1021.7 1015.4
15 25.06 ЮВ 4-6
{8}
30 км н/о +32.2 +13.0 31 +33 +33 жарко 1021.1 1014.8
16 25.06 ЮВ 3 40 км 10/0
[]
+32.6 +12.6 30 +33 +35 жарко 1020.5 1014.2
17 25.06 ЮВ 4-6
{8}
28 км н/о +32.0 +12.5 30 +32 +32 жарко 1020.1 1013.8

 

Местоположение метеостанции Ангермюнде (Германия): широта 53.03 долгота 14.00 высота над уровнем моря 55 м.

В архиве по умолчанию представлена погода в Ангермюнде за последнюю неделю. Архивные данные за месяц целиком и за предыдущие месяцы, начиная с января 2011 года, Вы можете получить, выбрав интересующий диапазон дат из раскрывающегося списка и нажав кнопку "Ввод!".


*Определитесь, кто Вы:
робот инопланетянин человек

Внимание! Время в таблицах - всемирное. Для получения местного времени необходимо прибавить поправку, которая равна 1 ч.

Смотрите также архив погоды в соседних городах и на ближайших метеорологических станциях:

Погода в Грюнове (Германия) (33 км)
Погода в Мекленбурге (Германия) (50 км)
Погода в Щецине (Польша) (58 км)
Погода в Маншно (Германия) (65 км)
Погода в Берлин-Тегеле (Германия) (69 км)
Погода в Берлине (Германия) (74 км)
Погода в Тролленхагене (Германия) (78 км)
Погода в Берлин-Далеме (Германия) (78 км)
Погода в Берлин-Шёнефельде (Германия) (79 км)
Погода в Иккермюнде (Германия) (80 км)

Пояснения к столбцам:

Ветер - указаны скорость ветра в м/с - средняя за 10 мин, порывы в срок и между сроками (в фигурных скобках) и направление, откуда дует ветер: С - северный, СВ - северо-восточный, В - восточный, ЮВ - юго-восточный, Ю - южный, ЮЗ - юго-западный, З - западный, СЗ - северо-западный.
Видимость - горизонтальная дальность видимости в метрах или километрах. При видимости от 1 до 10 км при отсутствии осадков обычно наблюдается дымка, при ухудшении видимости до 1 км и менее - туман. В сухую погоду видимость может ухудшаться дымом, пылью или мглою.
Явления - указаны атмосферные явления, наблюдавшиеся в срок или в последний час перед сроком; фигурными скобками обозначены явления, наблюдавшиеся между сроками (за 1-3 часа до срока); квадратными скобками обозначены град или гололедные отложения с указанием их диаметра в мм.
Облачность - указаны через наклонную черту общая и нижняя облачность в баллах и высота нижней границы облаков в метрах; квадратными скобками обозначены формы облаков: Ci - перистые, Cs - перисто-слоистые, Cc - перисто-кучевые, Ac - высококучевые, As - высокослоистые, Sc - слоисто-кучевые, Ns - слоисто-дождевые, Cu - кучевые, Cb - кучево-дождевые. Подробнее классификацию облаков см. в Атласе облаков (PDF).
T - Температура воздуха - температура, измеренная на высоте 2 м над землей.
Td - Температура точки росы - температура, при понижении до которой содержащийся в воздухе водяной пар достигнет насыщения.
f - Относительная влажность воздуха - влажноcть воздуха, измеренная на высоте 2 м над землей.
Te - Эффективная температура - температура, которую ощущает одетый по сезону человек в тени. Характеристика душности погоды. При расчете учитывается влияние влажности воздуха и скорости ветра на теплоощущения человека.
Tes - Эффективная температура на солнце - температура, которую ощущает человек, с поправкой на солнечный нагрев. Характеристика знойности погоды. Зависит от высоты солнца над горизонтом, облачности и скорости ветра. Ночью, в пасмурную погоду, а также при ветре 12 м/с и более поправка равна нулю.
P - Атмосферное давление - приведенное к уровню моря атмосферное давление.
Po - Атмосферное давление - измеренное на уровне метеостанции атмосферное давление.
Tmin - Минимальная температура - минимум температуры воздуха на высоте 2 м над землей.
Tmax - Максимальная температура - максимум температуры воздуха на высоте 2 м над землей.
R - Количество осадков - Количество выпавших осадков за период времени, мм. При наведении курсора мыши на число - период времени, за который выпало указанное количество осадков.
R24 - Количество осадков - Количество выпавших осадков за 24 часа, мм.
S - Снежный покров - Высота снежного покрова, см. При наведении курсора мыши на число - состояние снежного покрова и степень покрытия местности в баллах.